Location: Shepherdstown, WV
(39.4326°N, 77.8042°W)
Time: 04:30:04
(UTC-04:00)

Vanguard 1 - Pass Details

Date: 04 October 2021
Orbit: 653 x 3829 km, 34.2° (Epoch: 18 October)

Event Time Altitude Azimuth Distance (km) Brightness Sun altitude
Rises 19:47:54 0° 262° (W) 5,013 15.5 -12.3°
Reaches altitude 10° 19:50:35 10° 260° (W) 4,339 14.7 -12.8°
Maximum altitude 20:03:31 74° 178° (S) 2,952 12.4 -15.3°
Enters shadow 20:19:55 22° 101° (E) 5,734 13.3 -18.4°
